User: anonymous   Login
Location: Powder Track
(41.8531°N, 72.3584°W)
Time: 06:50:45
(UTC+00:00)
Language:

Vanguard 1 Rocket - Orbit

View from above orbital plane
View from above orbital plane
View from above satellite
View from above satellite

Ground track
Ground track

The orbit data is extracted from the following two-line orbital elements,

1 00016U 58002A   21204.90571534  .00000218  00000-0  31258-3 0  9998
2 00016  34.2649  75.6177 2027574 130.3520 249.2566 10.48740532500981
Epoch (UTC): 23 July 2021 21:44:13
Eccentricity: 0.2027574
inclination: 34.2649°
perigee height: 650 km
apogee height: 4226 km
right ascension of ascending node: 75.6177°
argument of perigee: 130.3520°
revolutions per day: 10.48740532
mean anomaly at epoch: 249.2566°
orbit number at epoch: 50098

The dashed part of the orbit path shows where the satellite is in the earth's shadow,  

DLR